CAPE
0 0 0 0 0 2 5 0 0 0 0 0 0 0 0 0 0 0 0 0 0 0 0 0 0 0 0 0 0 0 0 0 0 0 0 0 0 0 0 0 0 0 0 0
0 0 0 0 0 0 0 0 0 0 0 0 0 0 0 0 0 0 0 0 0 0 0 0 0 0 0 0 0 0 0 0 0 0 0 0 0 1 1 2 1 1 1 0
0 0 0 0 0 0 0 0 0 0 0 0 0 0 0 0 0 0 0 0 0 0 0 0 0 0 0 0 0 0 0 0 0 0 0 1 1 1 2 2 1 2 2 2
1 0 0 0 0 0 0 0 0 0 0 0 0 0 0 0 0 0 0 0 0 0 0 0 0 0 0 0 0 0 0 0 0 0 1 2 1 2 2 1 1 0 0 1
0 0 0 0 0 0 0 0 0 0 0 0 0 0 0 0 0 0 0 0 0 0 0 0 0 0 0 0 0 0 0 0 0 0 2 2 1 2 0 0 0 0 0 0
0 1 0 0 0 0 0 0 0 0 0 0 0 0 0 0 0 0 0 0 0 0 0 0 0 0 0 0 0 0 0 0 0 0 1 3 1 1 0 0 0 0 0 0
0 3 0 0 0 0 0 0 0 0 0 0 0 0 0 0 0 0 0 0 0 0 0 0 0 0 0 0 0 0 0 0 0 1 2 1 0 0 0 0 0 0 0 0
4 1 1 0 0 0 0 0 0 0 0 0 0 0 0 0 0 0 0 0 0 0 0 0 0 0 0 0 0 0 0 0 1 2 2 1 1 0 0 0 0 0 0 0
0 0 0 0 0 0 0 0 0 0 0 0 0 0 0 0 0 0 0 0 0 0 0 0 0 0 0 0 0 0 0 0 2 2 2 1 1 0 0 0 0 0 0 0
0 0 0 0 0 0 0 0 0 0 0 0 0 0 0 0 0 0 0 0 0 0 0 0 0 0 0 0 0 0 0 1 2 2 1 1 0 0 0 1 0 0 0 0
0 0 0 0 0 0 0 0 0 0 0 0 0 0 0 0 0 0 0 0 0 0 0 0 0 0 0 0 0 0 0 2 3 2 2 1 0 0 0 0 0 0 0 0
0 0 0 0 0 0 0 0 0 0 0 0 0 0 0 0 0 0 0 0 0 0 0 0 0 0 0 0 0 0 0 2 2 1 1 0 0 0 1 0 0 0 0 0
0 0 0 0 0 0 0 0 0 0 0 0 0 0 0 0 0 0 0 0 0 0 0 0 0 0 0 0 0 0 0 1 2 1 2 1 1 0 0 1 0 0 0 0
0 0 0 0 0 0 0 0 0 0 0 0 0 0 0 0 0 0 0 0 0 0 0 0 0 0 0 0 0 0 0 0 1 2 1 1 0 0 1 0 0 0 0 0
0 0 0 0 0 0 0 0 0 0 0 0 0 0 0 0 0 0 0 0 0 0 0 0 0 0 0 0 0 0 0 1 2 1 1 0 0 0 0 0 0 0 0 0
0 0 0 0 0 0 0 0 0 0 0 0 0 0 0 0 0 0 0 0 0 0 0 0 0 0 0 0 0 0 0 0 0 1 0 0 0 0 0 0 0 0 0 0
0 0 0 0 0 0 0 0 0 0 0 0 0 0 0 0 0 0 0 0 0 0 0 0 0 0 0 0 0 0 0 0 1 1 0 0 0 0 0 0 0 0 0 0
0 0 0 0 0 0 0 0 0 0 0 0 0 0 0 0 0 0 0 0 0 0 0 0 0 0 0 0 0 0 0 0 0 2 0 1 1 1 1 1 0 0 0 0
0 0 0 0 0 0 0 0 0 0 0 0 0 0 0 0 0 0 0 0 0 0 1 1 0 0 0 0 0 0 1 2 1 1 1 0 1 2 1 2 1 1 1 1
0 0 0 0 0 0 0 0 0 0 0 0 0 0 0 0 0 0 0 0 0 0 0 1 1 0 0 0 0 1 1 1 2 2 2 1 1 1 1 2 2 2 3 1
1 1 0 0 0 0 0 0 0 0 0 0 0 0 0 0 0 0 0 0 0 0 0 0 0 2 1 1 1 1 1 1 1 1 1 1 1 1 1 1 1 1 0 1
1 0 0 0 0 0 0 0 0 0 0 0 0 0 0 0 0 0 0 0 0 0 0 0 0 0 0 1 0 0 0 0 0 0 0 0 0 1 1 1 1 0 0 1
0 0 0 0 0 0 0 0 0 0 0 0 0 0 0 0 0 0 0 0 0 0 0 0 0 0 0 0 0 0 1 1 0 1 0 0 1 1 1 1 1 1 1 1
0 0 0 0 0 0 0 0 0 0 0 0 0 0 0 0 0 0 0 0 0 0 0 0 0 0 0 0 0 0 1 1 1 1 1 1 1 0 0 0 1 1 1 1
0 0 0 0 0 0 0 0 0 0 0 0 0 0 0 0 0 0 0 0 0 0 0 0 0 0 0 0 0 0 0 0 0 1 1 1 1 1 1 1 1 1 2 1
0 0 0 0 0 0 0 0 0 0 0 0 0 0 0 0 0 0 0 0 0 0 0 0 0 0 0 0 0 0 0 0 0 0 0 1 1 1 0 0 0 0 1 2
0 0 0 0 0 0 0 0 0 0 0 0 0 0 0 0 0 0 0 0 0 0 0 0 0 0 0 0 0 0 0 0 0 0 0 0 0 0 0 0 0 1 1 2
CIN
-0 -0 -0 -0 -0 -0 -0 -0 -0 -0 -0 -0 -0 -0 -0 -0 -0 -0 -0 -0 -0 -0 -0 -0 -0 -0 -0 -0 -0 -0 -0 -0 -0 -0 -0 -0 -0 -0 -0 -0 -0 -0 -0 -0
-0 -0 -0 -0 -0 -0 -0 -0 -0 -0 -0 -0 -0 -0 -0 -0 -0 -0 -0 -0 -0 -0 -0 -0 -0 -0 -0 -0 -0 -0 -0 -0 -0 -0 -0 -0 -0 -0 -0 -0 -0 -0 -0 -0
-1 -0 -0 -0 -0 -0 -0 -0 -0 -0 -0 -0 -0 -0 -0 -0 -0 -0 -0 -0 -0 -0 -0 -0 -0 -0 -0 -0 -0 -0 -0 -0 -0 -0 -0 -0 -0 -0 -0 -0 -0 -0 -0 -0
-1 -0 -0 -0 -0 -0 -0 -0 -0 -0 -0 -0 -0 -0 -0 -0 -0 -0 -0 -0 -0 -0 -0 -0 -0 -0 -0 -0 -0 -0 -0 -0 -0 -0 -0 -0 -0 -0 -0 -0 -0 -0 -0 -0
-1 -0 -0 -0 -0 -0 -0 -0 -0 -0 -0 -0 -0 -0 -0 -0 -0 -0 -0 -0 -0 -0 -0 -0 -0 -0 -0 -0 -0 -0 -0 -0 -0 -0 -0 -0 -0 -0 -0 -0 -0 -0 -0 -0
-0 -0 -0 -0 -0 -0 -0 -0 -0 -0 -0 -0 -0 -0 -0 -0 -0 -0 -0 -0 -0 -0 -0 -0 -0 -0 -0 -0 -0 -0 -0 -0 -0 -0 -0 -0 -0 -0 -0 -0 -0 -0 -0 -0
-0 -0 -1 -0 -0 -0 -0 -0 -0 -0 -0 -0 -0 -0 -0 -0 -0 -0 -0 -0 -0 -0 -0 -0 -0 -0 -0 -0 -0 -0 -0 -0 -0 -0 -0 -0 -0 -0 -0 -0 -0 -0 -0 -0
-0 -1 -0 -0 -0 -0 -0 -0 -0 -0 -0 -0 -0 -0 -0 -0 -0 -0 -0 -0 -0 -0 -0 -0 -0 -0 -0 -0 -0 -0 -0 -0 -0 -0 -0 -0 -0 -0 -0 -0 -0 -0 -0 -0
-0 -0 -0 -0 -0 -0 -0 -0 -0 -0 -0 -0 -0 -0 -0 -0 -0 -0 -0 -0 -0 -0 -0 -0 -0 -0 -0 -0 -0 -0 -0 -0 -0 -0 -0 -0 -0 -0 -0 -0 -0 -0 -0 -0
-0 -0 -0 -0 -0 -0 -0 -0 -0 -0 -14 -0 -0 -0 -0 -0 -0 -0 -0 -0 -0 -0 -0 -0 -0 -0 -0 -0 -0 -0 -0 -0 -0 -0 -0 -0 -0 -0 -0 -0 -0 -0 -0 -0
-0 -0 -0 -0 -0 -0 -0 -0 -0 -0 -0 -0 -0 -0 -0 -0 -0 -0 -0 -0 -0 -0 -0 -0 -0 -0 -0 -0 -0 -0 -0 -0 -0 -0 -0 -0 -0 -0 -0 -0 -0 -0 -0 -0
-0 -0 -0 -0 -0 -0 -0 -0 -0 -0 -0 -0 -0 -0 -0 -0 -0 -0 -0 -0 -0 -0 -0 -0 -0 -0 -0 -0 -0 -0 -0 -0 -0 -0 -0 -0 -0 -0 -0 -0 -0 -0 -0 -0
-0 -0 -0 -0 -0 -0 -0 -0 -0 -0 -0 -0 -0 -0 -0 -0 -0 -0 -0 -0 -0 -0 -0 -0 -0 -0 -0 -0 -0 -0 -0 -0 -0 -0 -0 -0 -0 -0 -0 -0 -0 -0 -0 -0
-0 -0 -0 -0 -0 -0 -0 -0 -0 -0 -0 -0 -0 -0 -0 -0 -0 -0 -0 -0 -0 -0 -0 -0 -0 -0 -0 -0 -0 -0 -0 -0 -0 -0 -0 -0 -0 -0 -0 -0 -0 -0 -0 -0
-0 -0 -0 -0 -0 -0 -0 -0 -0 -0 -0 -0 -0 -0 -0 -0 -0 -0 -0 -0 -0 -0 -0 -0 -0 -0 -0 -0 -0 -0 -0 -0 -0 -0 -0 -0 -0 -0 -0 -0 -0 -0 -0 -0
-0 -0 -0 -0 -0 -0 -0 -0 -0 -0 -0 -0 -0 -0 -0 -0 -0 -0 -0 -0 -0 -0 -0 -0 -0 -0 -0 -0 -0 -0 -0 -0 -0 -0 -0 -0 -0 -0 -0 -0 -0 -0 -0 -0
-0 -0 -0 -0 -0 -0 -0 -0 -0 -0 -0 -0 -0 -0 -0 -0 -0 -0 -0 -0 -0 -0 -0 -0 -0 -0 -0 -0 -0 -0 -0 -0 -0 -0 -0 -0 -0 -0 -0 -0 -0 -0 -0 -0
-0 -0 -0 -0 -0 -0 -0 -0 -0 -0 -0 -0 -0 -0 -0 -0 -0 -0 -0 -0 -0 -0 -0 -0 -0 -0 -0 -0 -0 -0 -0 -0 -0 -0 -0 -0 -0 -0 -0 -0 -0 -0 -0 -0
-0 -0 -0 -0 -0 -0 -0 -0 -0 -0 -0 -0 -0 -0 -0 -0 -0 -0 -0 -0 -0 -0 -0 -0 -0 -0 -0 -0 -0 -0 -0 -0 -0 -0 -0 -0 -0 -0 -0 -0 -0 -0 -0 -0
-0 -0 -0 -0 -0 -0 -0 -0 -0 -0 -0 -0 -0 -0 -0 -0 -0 -0 -0 -0 -0 -0 -0 -0 -0 -0 -0 -0 -0 -0 -0 -0 -0 -0 -0 -0 -0 -0 -0 -0 -0 -0 -0 -0
-0 -0 -0 -0 -0 -0 -0 -0 -0 -0 -0 -0 -0 -0 -0 -0 -0 -0 -0 -0 -0 -0 -0 -0 -0 -0 -0 -0 -0 -0 -0 -0 -0 -0 -0 -0 -0 -0 -0 -0 -0 -0 -0 -0
-0 -0 -0 -0 -0 -0 -0 -0 -0 -0 -0 -0 -0 -0 -0 -0 -0 -0 -0 -0 -0 -0 -0 -0 -0 -0 -0 -0 -0 -0 -0 -0 -0 -0 -0 -0 -0 -0 -0 -0 -0 -0 -0 -0
-0 -0 -0 -0 -0 -0 -0 -0 -0 -0 -0 -0 -0 -0 -0 -0 -0 -0 -0 -0 -0 -0 -0 -0 -0 -0 -0 -0 -0 -0 -0 -0 -0 -0 -0 -0 -0 -0 -0 -0 -0 -0 -0 -0
-0 -0 -0 -0 -0 -0 -0 -0 -0 -0 -0 -0 -0 -0 -0 -0 -0 -0 -0 -0 -0 -0 -0 -0 -0 -0 -0 -0 -0 -0 -0 -0 -0 -0 -0 -0 -0 -0 -0 -0 -0 -0 -0 -0
-0 -0 -0 -0 -0 -0 -0 -0 -0 -0 -0 -0 -0 -0 -0 -0 -0 -0 -0 -0 -0 -0 -0 -0 -0 -0 -0 -0 -0 -0 -0 -0 -0 -0 -0 -0 -0 -0 -0 -0 -0 -0 -0 -0
-0 -0 -0 -0 -0 -0 -0 -0 -0 -0 -0 -0 -0 -0 -0 -0 -0 -0 -0 -0 -0 -0 -0 -0 -0 -0 -0 -0 -0 -0 -0 -0 -0 -0 -0 -0 -0 -0 -0 -0 -0 -0 -0 -0
-0 -0 -0 -0 -0 -0 -0 -0 -0 -0 -0 -0 -0 -0 -0 -0 -0 -0 -0 -0 -0 -0 -0 -0 -0 -0 -0 -0 -0 -0 -0 -0 -0 -0 -0 -0 -0 -0 -0 -0 -0 -0 -0 -0
Wind_Speed
30 24 21 23 23 24 26 35 39 37 40 39 43 44 45 40 32 30 26 20 15 11 10 9 10 11 13 14 15 16 18 18 19 20 20 21 22 22 22 22 21 21 20 20
25 29 29 32 30 30 31 35 44 44 48 37 38 38 41 38 36 32 26 20 15 11 10 8 10 13 14 15 15 15 17 18 18 19 20 21 22 21 21 21 20 20 19 19
29 22 23 33 33 31 32 31 31 39 39 31 33 33 35 35 33 29 30 28 17 13 13 9 7 7 10 12 13 14 16 18 18 19 21 22 22 22 20 20 20 19 18 17
27 23 34 28 22 25 32 38 34 41 41 36 35 36 36 35 36 35 29 26 18 13 12 11 9 8 9 12 15 17 19 19 19 18 20 20 21 21 19 18 17 15 13 14
27 30 32 32 25 24 26 32 30 35 36 36 34 33 37 36 33 31 27 24 18 10 9 9 10 10 9 11 12 14 17 18 17 17 18 19 19 17 15 14 14 13 12 10
24 29 30 24 17 15 16 27 19 20 24 26 24 30 29 25 26 26 21 19 15 8 6 6 6 5 8 8 11 14 14 16 16 15 16 18 16 14 13 12 11 11 11 11
31 33 30 25 18 15 28 24 17 18 22 24 25 26 26 27 24 21 18 17 14 9 7 6 6 5 6 8 10 12 14 13 16 17 17 14 13 13 11 11 12 11 10 11
29 31 35 18 15 24 20 17 19 20 20 22 23 22 22 22 20 17 15 13 11 10 10 9 7 7 9 10 10 10 8 13 15 13 13 13 12 11 10 8 8 9 10 10
24 24 20 14 18 15 15 18 18 18 19 20 19 18 18 19 16 14 13 11 10 10 8 10 9 10 10 10 9 9 8 8 9 11 12 10 9 9 9 9 9 9 9 11
25 25 26 22 22 20 19 18 17 17 18 17 18 18 17 16 14 13 12 11 9 9 10 10 10 11 12 8 7 7 8 10 11 11 10 8 7 6 6 6 6 8 10 11
28 29 27 26 26 25 22 23 22 18 18 17 16 15 15 15 14 14 12 12 11 12 12 12 10 11 11 9 7 9 9 10 10 10 7 6 6 5 4 6 5 7 9 11
23 22 25 24 23 22 23 22 15 14 15 15 15 14 15 16 16 15 14 13 13 15 17 14 15 13 11 9 8 8 9 10 10 10 8 8 7 8 6 7 6 8 12 13
29 25 28 30 27 23 22 20 14 12 13 12 14 15 16 16 17 17 18 17 16 16 18 19 18 16 13 9 7 8 8 8 8 6 5 6 8 9 10 10 9 11 12 14
27 27 26 23 23 23 20 16 13 12 13 14 14 15 15 16 18 19 20 21 21 21 19 17 15 15 15 10 8 9 9 11 12 10 7 7 8 9 10 11 11 13 11 12
31 27 26 27 24 21 17 14 13 14 14 14 15 16 17 18 19 20 21 21 20 20 21 20 19 18 13 10 9 10 10 12 11 13 12 12 12 12 14 15 16 16 16 16
26 24 25 24 21 17 16 14 13 15 16 16 17 18 18 19 20 22 22 22 24 24 24 23 21 19 13 11 11 12 13 13 14 15 14 15 15 15 15 15 16 17 18 18
24 23 23 23 17 16 16 16 14 13 15 17 18 19 20 21 21 23 24 25 25 25 25 25 25 23 17 12 11 12 13 15 14 16 17 16 17 17 18 19 18 18 17 17
26 26 26 26 22 14 13 14 14 14 16 17 19 22 23 24 24 25 27 27 26 24 23 25 25 25 21 16 13 14 14 15 15 16 17 19 19 20 20 21 21 21 20 19
18 19 17 16 14 12 12 14 15 16 19 20 21 22 22 23 24 24 24 23 24 24 26 26 27 25 24 20 17 17 17 18 17 19 19 20 21 21 22 23 26 25 24 23
16 15 14 13 13 13 14 16 16 18 19 20 19 19 20 20 21 22 21 21 23 23 25 26 27 26 26 25 23 21 22 22 23 21 22 23 24 24 24 24 26 28 29 27
16 15 17 16 14 15 17 17 17 18 18 17 17 17 17 19 20 21 20 21 24 25 25 25 25 25 26 25 25 25 24 25 25 24 24 25 26 26 27 27 27 28 29 28
15 13 14 13 13 14 14 15 15 15 16 16 17 18 19 19 20 19 20 22 24 25 24 24 25 26 26 25 24 25 25 26 26 26 27 27 27 28 28 28 28 28 27 26
12 11 12 13 13 14 14 15 16 16 17 17 18 19 20 20 20 21 21 23 24 24 23 23 25 26 26 24 24 24 25 25 25 26 26 26 26 26 26 26 25 25 24 24
13 14 14 14 14 15 17 17 17 17 17 18 18 19 20 20 20 20 22 22 22 24 25 24 24 25 25 23 24 25 25 26 26 26 26 27 26 26 27 27 27 26 26 25
18 19 17 16 15 17 19 19 18 17 17 17 17 17 17 18 20 21 22 23 24 24 24 23 24 25 25 25 25 25 25 25 26 27 27 28 28 29 29 28 28 28 29 27
20 22 19 16 16 21 22 21 21 18 16 16 15 14 14 15 17 18 20 22 23 23 24 24 24 25 25 26 26 26 26 27 27 27 28 29 29 30 30 30 30 29 28 27
23 24 23 21 18 21 23 23 23 21 16 15 15 15 15 15 15 16 18 19 20 21 23 25 25 27 27 27 28 28 28 29 30 30 30 29 29 30 30 31 30 29 28 28
Wind_Direction
265 274 274 274 271 266 262 265 265 271 270 270 261 261 272 281 289 288 283 289 289 284 279 275 274 275 279 281 283 286 288 292 296 299 301 304 304 305 307 306 306 308 310 313
273 264 268 267 269 270 270 270 262 266 259 276 274 275 272 278 282 281 284 283 280 271 271 268 272 276 278 280 284 289 292 296 299 301 301 302 304 306 306 305 305 306 306 307
265 275 277 269 266 268 273 275 276 270 274 291 287 283 281 282 284 283 278 276 272 266 254 250 249 267 278 285 288 292 296 298 300 301 301 300 299 300 302 302 303 303 305 309
264 271 263 272 288 280 271 265 273 266 266 281 283 282 279 276 271 271 280 284 279 262 242 249 264 271 284 290 288 291 294 296 298 300 300 302 299 298 300 302 302 306 311 309
260 261 266 266 275 276 275 270 277 271 272 275 278 280 267 268 272 272 278 285 291 271 234 254 263 273 280 289 292 294 295 297 300 302 300 301 302 302 303 302 303 306 310 314
262 259 262 275 288 294 302 283 294 295 292 290 295 281 283 296 285 278 278 289 291 276 248 250 257 261 280 288 292 294 298 300 302 304 302 300 301 302 301 302 303 303 304 306
256 259 266 277 291 297 276 286 308 310 303 301 299 293 296 296 295 293 282 285 284 270 261 267 281 279 284 297 299 304 303 307 304 301 302 306 304 300 299 295 295 297 300 303
256 259 260 289 290 277 295 308 310 310 310 308 307 306 302 304 304 301 295 292 286 273 276 286 292 294 300 304 312 314 319 307 304 312 312 306 303 301 293 292 291 291 295 300
262 265 283 295 289 300 305 305 317 314 311 311 316 315 310 310 313 313 311 305 292 282 285 293 299 304 311 316 318 316 319 322 322 317 315 313 306 297 290 286 284 285 290 295
269 273 274 284 280 286 296 297 314 315 312 316 314 316 312 316 320 317 314 316 314 302 295 296 302 309 314 328 335 333 326 322 322 320 318 316 310 303 292 281 279 284 289 295
262 265 273 272 274 274 281 288 295 304 308 311 315 320 322 325 322 320 319 314 309 303 301 302 306 310 320 327 327 325 325 323 323 326 322 315 308 297 279 287 281 289 294 297
264 277 271 275 284 284 285 291 309 308 312 315 314 318 317 317 316 318 314 321 315 303 297 302 303 306 310 317 322 326 326 324 320 319 314 308 302 297 289 295 288 289 297 299
264 278 269 268 276 284 292 300 309 309 310 318 317 318 316 318 314 311 309 307 308 308 302 298 299 300 306 310 315 314 322 329 328 324 312 300 296 290 293 293 287 289 292 294
269 280 269 281 279 289 296 310 317 312 312 313 315 318 320 319 316 312 306 302 300 301 304 307 310 307 303 305 303 307 314 315 315 312 306 298 291 289 293 293 291 293 287 289
263 269 268 274 283 289 301 312 314 304 306 313 317 316 316 315 315 314 313 316 315 313 309 309 308 307 309 305 299 299 304 308 310 308 301 298 294 289 290 292 292 295 298 296
266 271 269 277 285 291 297 306 310 304 302 306 310 315 317 316 314 313 313 313 308 305 306 307 307 310 313 307 302 301 297 298 301 301 300 295 293 291 290 291 293 294 294 293
263 273 268 270 286 293 295 302 310 316 311 309 311 313 314 314 315 311 309 309 307 304 302 302 302 306 312 310 304 303 300 298 295 296 295 294 291 289 289 290 292 294 295 294
258 257 257 255 267 298 314 314 315 316 313 313 313 312 311 311 310 308 307 304 307 310 312 310 311 309 310 310 305 303 301 299 296 294 295 294 293 292 290 289 290 293 296 296
266 271 281 291 297 309 318 319 318 318 315 313 313 314 315 315 314 315 316 317 317 316 315 317 315 314 312 307 303 300 298 298 298 296 295 294 294 294 293 292 291 291 292 291
278 293 313 313 317 322 321 319 319 318 319 319 319 319 320 321 321 322 325 326 326 325 325 324 321 318 313 307 302 297 295 295 295 297 297 295 294 295 295 295 295 293 293 293
297 317 310 316 334 325 318 319 319 318 323 328 330 331 331 329 328 328 330 330 329 331 329 330 329 327 322 315 307 300 297 295 295 296 297 296 296 296 296 297 297 297 296 296
315 350 352 346 339 340 337 333 330 328 329 331 331 330 331 332 333 336 337 333 332 335 338 337 331 327 324 321 317 308 302 298 297 298 298 297 298 298 298 299 299 300 300 300
305 333 357 3 357 352 346 340 338 334 332 332 331 330 332 330 331 331 335 332 337 344 344 349 337 326 324 326 321 314 308 306 304 303 303 304 304 304 305 305 306 306 306 306
294 319 332 351 9 -0 344 343 343 342 340 339 338 337 337 334 337 337 335 338 343 339 335 347 349 333 330 333 326 317 310 307 305 304 305 305 306 305 305 305 306 308 308 308
292 299 319 341 352 338 333 337 347 357 355 351 350 354 357 355 348 342 339 337 336 336 337 347 347 341 332 327 326 321 318 316 313 309 308 306 305 305 305 306 307 306 306 308
309 292 313 332 336 311 310 323 328 347 1 4 8 16 16 12 8 2 353 347 343 340 338 340 341 339 335 328 325 323 323 321 318 315 312 309 307 305 304 306 308 309 310 311
306 302 309 315 324 313 307 310 317 327 349 359 358 -0 4 8 10 9 3 359 358 353 345 340 336 332 330 328 324 323 320 315 315 312 314 315 316 313 312 311 311 312 313 313